Meath Environmental Platform

Observations for Trim Market St

Time AQI Temp °C Hum % Pres Pa CO μg/m³ H₂S μg/m³ NO μg/m³ NO₂ μg/m³ O₃ μg/m³ SO₂ μg/m³ PM1 μg/m³ PM2.5 μg/m³ PM10 μg/m³
Sunday 12 July 2026
04:38 1 18.8 80 2,147,483,647 0.06 0 0 1.74 7.51 0 3.56 5.91 9.81
04:32 1 18.8 80 2,147,483,647 0.05 0 0 2.43 10.31 0 3.56 4.49 8.67
04:24 1 18.7 80 2,147,483,647 0.05 0 0 2.85 9.2 0 2.85 5.42 8.67
04:23 1 18.7 80 2,147,483,647 0.06 0 0 4.03 10.05 0 4.99 6.84 13.78
04:22 1 18.7 80 2,147,483,647 0.05 0 0.07 3.53 7.82 0 3.56 5.89 9.24
04:21 1 18.7 80 2,147,483,647 0.05 0 0 2.73 10.07 0 4.28 5.89 9.24
04:18 1 18.7 80 2,147,483,647 0.06 0 0 5.03 11.07 0 3.56 5.42 9.8
04:17 1 18.7 80 2,147,483,647 0.05 0 0 2.93 8.84 0 2.85 4 6.96
04:16 1 18.7 80 2,147,483,647 0.06 0 0 6.73 12.55 0 3.56 4.95 9.8
04:15 1 18.7 80 2,147,483,647 0.06 0 0 2.72 11.12 0 4.28 5.41 8.67
04:14 1 18.7 80 2,147,483,647 0.06 0 0 3.92 6.53 0 4.28 4.94 8.1
04:12 1 18.7 80 2,147,483,647 0.06 0 0 2.32 16.15 0 3.56 5.89 10.37
04:03 1 18.6 80 2,147,483,647 0.08 0 0 2.73 10 0 4.99 5.87 9.23
04:02 1 18.7 80 2,147,483,647 0.07 0 0 3.6 7.01 0 4.99 6.35 9.8
03:59 1 18.6 80 2,147,483,647 0.08 0 0 3.73 9.95 0 4.28 5.4 8.66
03:57 1 18.6 80 2,147,483,647 0.08 0 0 2.43 16.39 0 4.99 5.4 9.23
03:55 1 18.6 80 2,147,483,647 0.08 0 0 2.83 10.18 0 4.99 6.35 10.36
03:54 1 18.6 80 2,147,483,647 0.07 0 0 7.83 14.01 0 4.99 5.87 9.23
03:53 1 18.6 80 2,147,483,647 0.08 0 0 3.03 11.31 0 5.7 5.87 10.93
03:52 1 18.6 80 2,147,483,647 0.08 0 0 3.33 9.95 0 4.99 7.76 12.06